Location: *
(46.0770°N, 1.6444°E)
Time: 11:17:52
(UTC+00:00)

Resurs 01 Rocket - Pass Details

Date: 16 September 2019
Orbit: 635 x 644 km, 98.0° (Epoch: 17 October)

Event Time Altitude Azimuth Distance (km) Brightness Sun altitude
Exits shadow 19:55:57 46° 121° (ESE) 869 1.8 -19.6°
Maximum altitude 19:56:57 58° 72° (ENE) 753 1.7 -19.7°
Drops below altitude 10° 20:01:20 10° 354° (N) 2,047 4.6 -20.4°
Sets 20:03:34 0° 351° (N) 2,962 5.6 -20.7°
